Terminal Aerodrome Forecast
Issued by NWS Sterling, VA

Current Version | Previous Version | Text Only | Print | Product List | Glossary Off
Versions: 1 2 3 4 5 6 7 8 9 10 11 12 13 14 15 16 17 18 19 20

000
FTUS41 KLWX 242300
TAFIAD
TAF
KIAD 242328Z 2500/2606 VRB04KT P6SM SCT250
     FM250300 00000KT P6SM FEW050 SCT250
     FM251300 07006KT P6SM FEW040 FEW250
     FM260100 00000KT P6SM FEW250=

USA.gov is the U.S. government's official web portal to all federal, state and local government web resources and services.